Terminal Aerodrome Forecast
Issued by NWS Raleigh/Durham, NC

Home | Current Version | Previous Version | Text Only | Print | Product List | Glossary On
Versions: 1 2 3 4 5 6 7 8 9 10 11 12 13 14 15 16 17 18 19 20 21 22 23 24 25 26 27 28 29 30 31 32 33 34 35 36 37 38 39 40 41 42 43 44 45 46 47 48 49 50
000
FTUS42 KRAH 020213 AAA
TAFGSO
TAF AMD
KGSO 020213Z 0202/0224 00000KT P6SM SCT025 BKN250
     FM020300 00000KT 5SM BR SCT250
     FM020600 00000KT 2SM BR FEW002
      TEMPO 0209/0213 1/2SM FG VV002
     FM021300 VRB04KT P6SM OVC015
     FM021600 VRB05KT P6SM FEW050 SCT250=

USA.gov is the U.S. government's official web portal to all federal, state and local government web resources and services.